Jackson Hawkins Field, MS

11:37 AM CDT on May 29, 2017 (GMT -0500)
Hawkins

Weather History for KHKS - June, 2013

Change the Weather History Date:

Thursday, June 6, 2013

  Actual Average (KJAN) Record (KJAN)
Temperature  
Mean Temperature 78 °F -  
Max Temperature 87 °F 88 °F 101 °F (1902)
Min Temperature 69 °F 66 °F 55 °F (1897)
Cooling Degree Days 12    
Growing Degree Days 28 (Base 50)    
Moisture  
Dew Point 69 °F    
Average Humidity 82    
Maximum Humidity 94    
Minimum Humidity 61    
Precipitation  
Precipitation 0.22 in - - ()
Sea Level Pressure  
Sea Level Pressure 29.81 in    
Wind  
Wind Speed 9 mph (West)    
Max Wind Speed 28 mph    
Max Gust Speed 39 mph    
Visibility 9 miles    
Events Rain , Thunderstorm    
Averages and records for this station are not official NWS values.
T = Trace of Precipitation, MM = Missing Value Source: NWS Daily Summary

Daily Weather History Graph

Daily Weather History Graph

Search for Another Location

Airport or City:

Trip Planner

Search our weather history database for the weather conditions in past years. The results will help you decide how hot, cold, wet, or windy it might be!

Date:

Astronomy

Jun. 06, 2013 Rise Set
Actual Time 5:53 AM CDT 8:05 PM CDT
Civil Twilight 5:25 AM CDT 8:33 PM CDT
Nautical Twilight 4:51 AM CDT 9:08 PM CDT
Astronomical Twilight 4:14 AM CDT 9:45 PM CDT
Moon 4:29 AM CDT (6/6) 6:31 PM CDT (6/6)
Length of Visible Light 15h 08m
Length of Day
14h 11m
Waning Crescent, 3% of the Moon is Illuminated
Jun 6
Waning Crescent
Jun 8
New
Jun 16
First Quarter
Jun 23
Full
Jun 29
Last Quarter

Hourly Weather History & Observations

Time (CDT) Temp. Heat Index Dew Point Humidity Pressure Visibility Wind Dir Wind Speed Gust Speed Precip Events Conditions
12:53 AM 72.0 °F - 68.0 °F 87% 29.82 in 10.0 mi SSE 12.7 mph - N/A Thunderstorm Thunderstorm
1:01 AM 71.6 °F - 68.0 °F 88% 29.85 in 10.0 mi SE 8.1 mph 18.4 mph N/A Thunderstorm Clear
1:22 AM 73.4 °F - 66.2 °F 78% 29.88 in 10.0 mi Calm Calm - N/A   Clear
1:53 AM 72.0 °F - 66.9 °F 84% 29.84 in 10.0 mi East 3.5 mph - N/A   Partly Cloudy
2:53 AM 71.1 °F - 66.9 °F 87% 29.80 in 10.0 mi South 3.5 mph - N/A   Clear
3:53 AM 71.1 °F - 66.0 °F 84% 29.81 in 10.0 mi Calm Calm - N/A   Clear
4:53 AM 70.0 °F - 66.0 °F 87% 29.80 in 10.0 mi SE 4.6 mph - N/A   Mostly Cloudy
5:53 AM 70.0 °F - 66.9 °F 90% 29.81 in 10.0 mi SW 18.4 mph 29.9 mph N/A   Scattered Clouds
6:53 AM 72.0 °F - 66.9 °F 84% 29.82 in 10.0 mi Calm Calm - N/A   Clear
7:53 AM 73.0 °F - 68.0 °F 84% 29.82 in 10.0 mi WNW 3.5 mph - N/A   Scattered Clouds
8:53 AM 79.0 °F - 72.0 °F 79% 29.82 in 10.0 mi WSW 9.2 mph - N/A   Clear
9:53 AM 82.0 °F 86.7 °F 72.0 °F 71% 29.81 in 10.0 mi WNW 4.6 mph - N/A   Partly Cloudy
10:53 AM 84.9 °F 91.4 °F 73.0 °F 67% 29.80 in 10.0 mi Variable 6.9 mph - N/A   Scattered Clouds
11:12 AM 84.2 °F 90.9 °F 73.4 °F 70% 29.83 in 10.0 mi West 8.1 mph - N/A   Mostly Cloudy
11:25 AM 84.2 °F 90.9 °F 73.4 °F 70% 29.84 in 10.0 mi West 9.2 mph - N/A   Mostly Cloudy
11:53 AM 84.0 °F 90.2 °F 73.0 °F 69% 29.82 in 10.0 mi WNW 8.1 mph - N/A   Mostly Cloudy
12:53 PM 86.0 °F 91.5 °F 71.1 °F 61% 29.81 in 10.0 mi NW 11.5 mph 19.6 mph 0.00 in   Partly Cloudy
1:53 PM 84.9 °F 90.7 °F 72.0 °F 65% 29.77 in 10.0 mi WNW 12.7 mph 20.7 mph N/A   Mostly Cloudy
2:03 PM 84.2 °F 89.6 °F 71.6 °F 66% 29.80 in 10.0 mi WNW 17.3 mph 25.3 mph N/A   Scattered Clouds
2:20 PM 80.6 °F 85.4 °F 73.4 °F 79% 29.81 in 1.8 mi West 20.7 mph 26.5 mph 0.06 in Rain Rain
2:31 PM 78.8 °F - 71.6 °F 78% 29.80 in 2.0 mi West 25.3 mph 32.2 mph 0.14 in Rain Light Rain
2:33 PM 77.0 °F - 69.8 °F 78% 29.81 in 3.0 mi West 27.6 mph 34.5 mph 0.14 in Rain Light Rain
2:49 PM 73.4 °F - 69.8 °F 88% 29.83 in 4.0 mi WNW 20.7 mph 39.1 mph 0.16 in Rain Rain
2:53 PM 73.0 °F - 69.1 °F 87% 29.81 in 3.0 mi WNW 20.7 mph 39.1 mph 0.16 in Rain Light Rain
2:55 PM 71.6 °F - 69.8 °F 94% 29.83 in 2.5 mi NW 24.2 mph 32.2 mph 0.02 in Rain Light Rain
3:06 PM 69.8 °F - 68.0 °F 94% 29.83 in 3.0 mi WNW 18.4 mph 33.4 mph 0.04 in Rain Light Rain
3:53 PM 71.1 °F - 68.0 °F 90% 29.80 in 8.0 mi Variable 6.9 mph - 0.06 in Rain Light Rain
4:53 PM 71.1 °F - 68.0 °F 90% 29.78 in 10.0 mi Calm Calm - 0.00 in   Clear
5:30 PM 71.6 °F - 68.0 °F 88% 29.82 in 10.0 mi West 4.6 mph - N/A   Mostly Cloudy
5:42 PM 71.6 °F - 68.0 °F 88% 29.80 in 10.0 mi SW 4.6 mph - N/A   Scattered Clouds
5:53 PM 72.0 °F - 66.9 °F 84% 29.77 in 10.0 mi WSW 4.6 mph - N/A   Scattered Clouds
6:53 PM 73.0 °F - 66.9 °F 81% 29.77 in 10.0 mi North - - N/A   Clear
7:53 PM 72.0 °F - 68.0 °F 87% 29.79 in 10.0 mi North - - N/A   Clear
8:53 PM 72.0 °F - 68.0 °F 87% 29.81 in 10.0 mi WNW 8.1 mph - N/A   Clear
9:53 PM 71.1 °F - 66.9 °F 87% 29.82 in 10.0 mi NW 3.5 mph - N/A   Partly Cloudy
10:53 PM 70.0 °F - 66.9 °F 90% 29.81 in 10.0 mi NW 4.6 mph - N/A   Clear
11:53 PM 70.0 °F - 66.9 °F 90% 29.80 in 10.0 mi NW 5.8 mph - N/A   Clear